Regional Weather Roundup
Issued by NWS

Home | Current Version | Previous Version | Graphics & Text | Print | Product List | Glossary On
Versions: 1 2 3 4 5 6 7 8 9 10 11 12 13 14 15 16 17 18 19 20 21 22 23 24 25 26 27
000
ASUS45 KSLC 230810
RWRUT

UTAH REGIONAL WEATHER ROUNDUP
NATIONAL WEATHER SERVICE SALT LAKE CITY UT
200 AM MDT THU MAR 23 2017

UTZ001>011-023>025-230900-

NORTHERN UTAH

CITY           SKY/WX    TMP DP  RH WIND       PRES   REMARKS
BRIGHAM CITY     N/A     48  38  67 NW5       29.73F
HILL AFB       MIX PCPN  45  41  87 NE5       29.73R
LOGAN          CLOUDY    45  40  82 N16       29.75F
OGDEN          CLOUDY    44  41  89 NW12      29.71F
SALT LAKE CITY HVY RAIN  47  44  90 NW12      29.72S FOG
WENDOVER       CLOUDY    45  30  57 NW16G22   29.80R
HEBER CITY     RAIN      43  37  81 CALM      29.73S

$$

UTZ011>015-024>027-230900-

CENTRAL/NORTHEAST UTAH

CITY           SKY/WX    TMP DP  RH WIND       PRES   REMARKS
PROVO AIRPORT  RAIN      46  43  89 S7        29.76
MOAB/CANYONLAN LGT RAIN  52  42  69 SW15      29.75R
DELTA          CLOUDY    41  39  93 NW6       29.78R
PRICE          RAIN      42  41  96 CALM      29.75F FOG
RICHFIELD      CLOUDY    41  41 100 S8        29.84  FOG
ROOSEVELT      RAIN      43  41  93 CALM      29.80F
VERNAL         LGT RAIN  42  38  85 NE7       29.78F

$$

UTZ013>016-019>022-027-230900-

SOUTHERN UTAH

CITY           SKY/WX    TMP DP  RH WIND       PRES   REMARKS
BRYCE CANYON   MOCLDY    32  28  85 N5        29.83F WCI  27
CEDAR CITY     CLOUDY    39  36  89 SW8       29.82F WCI  33
MILFORD        CLOUDY   N/A N/A N/A S16       29.81F
ST GEORGE      CLOUDY    52  41  66 SE9       29.81F
HANKSVILLE     CLOUDY    52  37  58 SW21G28   29.77R
KANAB          CLOUDY    41  39  93 S1        29.90
BLANDING       MOCLDY    53  30  41 SW16G30   29.90R

$$

REGIONAL REPORTS     COLORADO/ARIZONA

CITY           SKY/WX    TMP DP  RH WIND       PRES   REMARKS
CRAIG, CO      CLOUDY    43  33  68 CALM      29.82R
GRAND JUNCTION PTCLDY    52  34  50 N9        29.70F
RIFLE, CO      CLOUDY    58  29  33 S10G21    29.79R
MONTROSE, CO   CLEAR     58  20  22 SW8       29.80R
CORTEZ, CO     CLEAR     54  24  31 SW15      29.86F
COLORADO CITY    N/A     43  41  93 SE5       29.88F
PAGE, AZ       CLOUDY    47  32  56 N3        29.85R
GRAND CANYON   CLOUDY    34  34 100 S3        29.90F
KINGMAN, AZ    MOCLDY    47  35  63 SE8       29.85F
FLAGSTAFF, AZ  SNOW      32  31  96 W8        29.90F VSB 1/2 WCI  25

$$

REGIONAL REPORTS    NEVADA/IDAHO/WYOMING

CITY           SKY/WX    TMP DP  RH WIND       PRES   REMARKS
LAS VEGAS, NV  PTCLDY    55  27  34 SW17      29.77S
ELY, NY        LGT SNOW  33  32  96 NW3       29.84S FOG
ELKO, NV       CLOUDY    35  33  92 S7        29.88S WCI  29
POCATELLO, ID  CLOUDY    42  38  85 SW9       29.82F
BURLEY, ID     CLOUDY    43  34  70 W10       29.81F
FORT BRIDGER,  FOG       38  38 100 NE9       29.81R VSB 1   WCI  32
EVANSTON, WY   FOG       36  34  92 N7        29.76F VSB 1/4 WCI  30
ROCK SPRINGS,  LGT RAIN  37  34  89 S10       29.82S WCI  30
KEMMERER, WY     N/A     34  34 100 N10       29.79F WCI  26

$$




USA.gov is the U.S. government's official web portal to all federal, state and local government web resources and services.